Weather History for Shelby, NC

Change the Weather History Date:

Wednesday, December 11, 2013

  Actual Average (KHKY) Record (KHKY)
Temperature  
Mean Temperature 36 °F -  
Max Temperature 50 °F 51 °F 77 °F (2007)
Min Temperature 22 °F 32 °F 10 °F (1957)
Degree Days  
Heating Degree Days 30    
Moisture  
Dew Point 23 °F    
Average Humidity 64    
Maximum Humidity 94    
Minimum Humidity 31    
Precipitation  
Precipitation 0.00 in - - ()
Sea Level Pressure  
Sea Level Pressure 30.35 in    
Wind  
Wind Speed 2 mph (SSW)    
Max Wind Speed 7 mph    
Max Gust Speed -    
Visibility 10 miles    
Events      
Averages and records for this station are not official NWS values.
T = Trace of Precipitation, MM = Missing Value Source: NWS Daily Summary

Daily Weather History Graph

Daily Weather History Graph

Search for Another Location

Airport:

Trip Planner

Search our weather history database for the weather conditions in past years. The results will help you decide how hot, cold, wet, or windy it might be!

Date:

Astronomy

Dec. 11, 2013 Rise Set
Actual Time 7:25 AM EST 5:14 PM EST
Civil Twilight 6:56 AM EST 5:42 PM EST
Nautical Twilight 6:25 AM EST 6:14 PM EST
Astronomical Twilight 5:54 AM EST 6:45 PM EST
Moon 1:38 PM EST (12/11) 1:54 AM EST (12/11)
Length of Visible Light 10h 45m
Length of Day
9h 49m
Waxing Gibbous, 71% of the Moon is Illuminated
Dec 11
Waxing Gibbous
Dec 17
Full
Dec 25
Last Quarter
Jan 1
New
Jan 7
First Quarter

Hourly Weather History & Observations

Time (EST) Temp. Windchill Dew Point Humidity Pressure Visibility Wind Dir Wind Speed Gust Speed Precip Events Conditions
12:15 AM 31.8 °F 28.5 °F 23.0 °F 70% 30.32 in 10.0 mi SSW 3.5 mph - N/A   Clear
12:35 AM 30.2 °F - 24.1 °F 78% 30.32 in 10.0 mi Calm Calm - N/A   Clear
12:55 AM 31.3 °F - 23.7 °F 74% 30.32 in 10.0 mi Calm Calm - N/A   Clear
1:15 AM 28.6 °F 24.8 °F 25.0 °F 86% 30.32 in 10.0 mi SSW 3.5 mph - N/A   Clear
1:35 AM 28.2 °F - 23.9 °F 84% 30.32 in 10.0 mi Calm Calm - N/A   Clear
1:55 AM 27.1 °F - 23.9 °F 88% 30.32 in 10.0 mi Calm Calm - N/A   Clear
2:15 AM 27.3 °F 23.4 °F 23.7 °F 86% 30.32 in 10.0 mi West 3.5 mph - N/A   Clear
2:35 AM 28.9 °F 25.2 °F 23.9 °F 81% 30.33 in 10.0 mi West 3.5 mph - N/A   Clear
2:55 AM 26.8 °F 22.8 °F 24.1 °F 90% 30.33 in 10.0 mi West 3.5 mph - N/A   Clear
3:15 AM 30.2 °F - 21.4 °F 70% 30.34 in 10.0 mi Calm Calm - N/A   Clear
3:35 AM 28.8 °F - 21.9 °F 76% 30.35 in 10.0 mi Calm Calm - N/A   Clear
3:55 AM 28.4 °F - 22.6 °F 79% 30.35 in 10.0 mi Calm Calm - N/A   Clear
4:15 AM 25.2 °F - 22.1 °F 88% 30.36 in 10.0 mi Calm Calm - N/A   Clear
4:35 AM 26.6 °F - 23.0 °F 86% 30.36 in 10.0 mi Calm Calm - N/A   Clear
4:55 AM 25.9 °F - 22.8 °F 88% 30.36 in 10.0 mi Calm Calm - N/A   Clear
5:15 AM 25.5 °F - 22.6 °F 89% 30.37 in 10.0 mi Calm Calm - N/A   Clear
5:35 AM 23.9 °F - 21.6 °F 91% 30.37 in 10.0 mi Calm Calm - N/A   Clear
5:55 AM 24.4 °F - 22.6 °F 93% 30.38 in 10.0 mi Calm Calm - N/A   Clear
6:15 AM 27.5 °F - 23.4 °F 84% 30.39 in 10.0 mi Calm Calm - N/A   Clear
6:35 AM 25.0 °F - 22.1 °F 89% 30.39 in 10.0 mi Calm Calm - N/A   Clear
6:55 AM 23.9 °F - 21.9 °F 92% 30.40 in 10.0 mi Calm Calm - N/A   Clear
7:15 AM 25.3 °F - 22.5 °F 89% 30.39 in 10.0 mi Calm Calm - N/A   Clear
7:35 AM 25.2 °F - 22.8 °F 91% 30.40 in 10.0 mi Calm Calm - N/A   Clear
7:55 AM 22.6 °F - 20.5 °F 91% 30.41 in 10.0 mi Calm Calm - N/A   Clear
8:15 AM 24.8 °F - 23.2 °F 94% 30.41 in 10.0 mi Calm Calm - N/A   Clear
8:35 AM 26.6 °F - 23.7 °F 89% 30.42 in 10.0 mi Calm Calm - N/A   Clear
8:55 AM 28.2 °F - 24.8 °F 87% 30.43 in 10.0 mi Calm Calm - N/A   Clear
9:15 AM 30.9 °F - 25.9 °F 82% 30.43 in 10.0 mi Calm Calm - N/A   Clear
9:35 AM 33.3 °F - 25.5 °F 73% 30.43 in 10.0 mi Calm Calm - N/A   Clear
9:55 AM 34.5 °F - 25.3 °F 69% 30.44 in 10.0 mi Calm Calm - N/A   Clear
10:15 AM 36.9 °F - 26.2 °F 65% 30.45 in 10.0 mi Calm Calm - N/A   Clear
10:35 AM 37.9 °F - 23.5 °F 56% 30.45 in 10.0 mi Calm Calm - N/A   Clear
10:55 AM 39.2 °F - 25.7 °F 58% 30.44 in 10.0 mi Calm Calm - N/A   Clear
11:15 AM 40.6 °F 38.6 °F 24.8 °F 53% 30.43 in 10.0 mi SW 3.5 mph - N/A   Clear
11:35 AM 42.1 °F 39.2 °F 24.4 °F 50% 30.42 in 10.0 mi WSW 4.6 mph - N/A   Clear
11:55 AM 42.6 °F 38.4 °F 25.2 °F 50% 30.41 in 10.0 mi SSW 6.9 mph - N/A   Clear
12:15 PM 44.4 °F 40.5 °F 25.5 °F 48% 30.39 in 10.0 mi SW 6.9 mph - N/A   Clear
12:35 PM 44.8 °F - 25.5 °F 47% 30.37 in 10.0 mi Calm Calm - N/A   Clear
12:55 PM 46.0 °F 43.9 °F 22.1 °F 39% 30.36 in 10.0 mi WNW 4.6 mph - N/A   Clear
1:15 PM 47.1 °F - 22.1 °F 37% 30.35 in 10.0 mi SSW 5.8 mph - N/A   Clear
1:35 PM 47.7 °F - 21.6 °F 36% 30.34 in 10.0 mi South 3.5 mph - N/A   Clear
1:55 PM 48.4 °F - 20.8 °F 34% 30.33 in 10.0 mi WSW 5.8 mph - N/A   Clear
2:15 PM 48.9 °F - 21.6 °F 34% 30.32 in 10.0 mi SSE 5.8 mph - N/A   Clear
2:35 PM 49.5 °F - 21.4 °F 33% 30.32 in 10.0 mi South 5.8 mph - N/A   Clear
2:55 PM 49.5 °F - 21.2 °F 33% 30.31 in 10.0 mi South 5.8 mph - N/A   Clear
3:15 PM 49.8 °F - 20.3 °F 31% 30.31 in 10.0 mi SW 6.9 mph - N/A   Clear
3:35 PM 49.5 °F - 19.9 °F 31% 30.31 in 10.0 mi South 6.9 mph - N/A   Clear
3:55 PM 49.5 °F - 20.8 °F 32% 30.30 in 10.0 mi South 6.9 mph - N/A   Clear
4:15 PM 49.1 °F - 20.5 °F 32% 30.30 in 10.0 mi South 6.9 mph - N/A   Clear
4:35 PM 48.4 °F - 20.5 °F 33% 30.30 in 10.0 mi South 6.9 mph - N/A   Clear
4:55 PM 47.7 °F - 21.0 °F 35% 30.31 in 10.0 mi South 4.6 mph - N/A   Clear
5:15 PM 46.6 °F - 21.0 °F 36% 30.31 in 10.0 mi Calm Calm - N/A   Clear
5:35 PM 46.0 °F 44.8 °F 21.6 °F 38% 30.31 in 10.0 mi South 3.5 mph - N/A   Clear
5:55 PM 44.2 °F 42.7 °F 22.3 °F 42% 30.31 in 10.0 mi SSE 3.5 mph - N/A   Clear
6:15 PM 44.2 °F 41.8 °F 21.9 °F 41% 30.30 in 10.0 mi South 4.6 mph - N/A   Clear
6:35 PM 43.7 °F 42.1 °F 22.6 °F 43% 30.31 in 10.0 mi South 3.5 mph - N/A   Clear
6:55 PM 42.8 °F 41.1 °F 23.2 °F 46% 30.31 in 10.0 mi South 3.5 mph - N/A   Clear
7:15 PM 42.4 °F 39.6 °F 23.5 °F 47% 30.31 in 10.0 mi South 4.6 mph - N/A   Clear
7:35 PM 41.9 °F 40.0 °F 23.9 °F 49% 30.31 in 10.0 mi South 3.5 mph - N/A   Clear
7:55 PM 39.9 °F 37.8 °F 24.8 °F 55% 30.31 in 10.0 mi SSE 3.5 mph - N/A   Clear
8:15 PM 38.3 °F 35.9 °F 25.0 °F 59% 30.31 in 10.0 mi SSE 3.5 mph - N/A   Clear
8:35 PM 39.6 °F 37.4 °F 24.8 °F 56% 30.31 in 10.0 mi South 3.5 mph - N/A   Clear
8:55 PM 39.4 °F - 25.2 °F 57% 30.31 in 10.0 mi Calm Calm - N/A   Clear
9:15 PM 38.1 °F - 25.5 °F 61% 30.31 in 10.0 mi Calm Calm - N/A   Clear
9:35 PM 34.3 °F - 25.5 °F 70% 30.31 in 10.0 mi Calm Calm - N/A   Clear
9:55 PM 32.5 °F - 25.3 °F 75% 30.31 in 10.0 mi Calm Calm - N/A   Clear
10:15 PM 34.0 °F 31.0 °F 25.7 °F 72% 30.30 in 10.0 mi NNE 3.5 mph - N/A   Clear
10:35 PM 35.2 °F - 26.2 °F 70% 30.30 in 10.0 mi Calm Calm - N/A   Clear
10:55 PM 35.4 °F - 26.1 °F 69% 30.29 in 10.0 mi Calm Calm - N/A   Clear
11:15 PM 29.5 °F - 25.0 °F 83% 30.29 in 10.0 mi Calm Calm - N/A   Clear
11:35 PM 31.5 °F - 26.2 °F 81% 30.29 in 10.0 mi Calm Calm - N/A   Clear
11:55 PM 31.3 °F 26.6 °F 25.3 °F 79% 30.29 in 10.0 mi NNE 4.6 mph - N/A   Clear